Погода в Княжпогосте

Россия / Республика Коми     62°36′10″N   50°51′12″E
темп.,
°C
ветер,
м/с
пор.,
м/с
влажн.,
%
обл.,
%
осадки,
мм/ч
давл.,
гПа
погр.,
м
7 марта, вс
вс700:00−21юз2299100 0.1 100752
03:00−23ююз2210094 0.1 100723
06:00−23ю22100100 0.0 100620
09:00−20ю2397100 0.1 1006221
12:00−14ю2386100 0.0 1005479
15:00−13юв1285100 0.1 1004585
18:00−17вюв2296100 0.1 100420
21:00−20в229995 0.1 100425
8 марта, пн
пн800:00−20в2399100 0.1 100464
03:00−22всв239999 0.1 100469
06:00−22всв2699100 0.1 1004170
09:00−20св3696100 0.1 1004271
12:00−16св3690100 0.0 1004498
15:00−16св4789100 0.1 1004623
18:00−20ссв3996100 0.0 1006360
21:00−23ссв399799 0.1 1008277
9 марта, вт
вт900:00−27ссв389686 0.0 1009251
03:00−30с379678 0.0 1012240
06:00−32с379632 0.0 1013235
09:00−30с369233 0.0 1015320
12:00−25с259055 0.0 1016406
15:00−22ссз258969 0.0 1017541
18:00−26ссз2297100 0.0 101820
21:00−28ссз229760 0.0 102019
10 марта, ср
ср1000:00−29зсз12960 0.0 102019
03:00−30з22980 0.0 101919
06:00−29зюз259634 0.0 101992
09:00−23з269165 0.0 1018293
12:00−19зсз3591100 0.0 1018475
15:00−16з3790100 0.0 1016434
18:00−15зсз3996100 0.4 1015519
21:00−13з31194100 0.9 1014554
11 марта, чт
чт1100:00−10сз41193100 0.1 1014621
03:00−11сз41094100 0.1 1015420
06:00−12сз31193100 0.1 1015464
09:00−12зсз498285 0.1 1016403
12:00−9зсз498034 0.0 1016689
15:00−8з598017 0.0 1016922
18:00−11з4128941 0.0 1016579
21:00−13з4129149 0.0 1016510